Year,Month,Day,Hour,Minute,Value (Times are PST for windgust in km/hr)
2015,12,12,00,00,1.60
2015,12,12,00,01,1.60
2015,12,12,00,02,1.60
2015,12,12,00,03,1.60
2015,12,12,00,04,1.60
2015,12,12,00,05,1.60
2015,12,12,00,06,1.60
2015,12,12,00,07,1.60
2015,12,12,00,08,1.60
2015,12,12,00,09,1.60
2015,12,12,00,10,1.60
2015,12,12,00,11,1.60
2015,12,12,00,12,1.60
2015,12,12,00,13,1.60
2015,12,12,00,14,1.60
2015,12,12,00,15,1.60
2015,12,12,00,16,3.20
2015,12,12,00,17,3.20
2015,12,12,00,18,1.60
2015,12,12,00,19,1.60
2015,12,12,00,20,3.20
2015,12,12,00,21,3.20
2015,12,12,00,22,1.60
2015,12,12,00,23,3.20
2015,12,12,00,24,3.20
2015,12,12,00,25,3.20
2015,12,12,00,26,3.20
2015,12,12,00,27,1.60
2015,12,12,00,49,3.20
2015,12,12,00,50,4.80
2015,12,12,00,51,3.20
2015,12,12,00,52,3.20
2015,12,12,00,53,3.20
2015,12,12,00,54,1.60
2015,12,12,00,55,1.60
2015,12,12,00,56,1.60
2015,12,12,00,57,1.60
2015,12,12,01,01,1.60
2015,12,12,01,04,1.60
2015,12,12,01,09,1.60
2015,12,12,01,10,1.60
2015,12,12,01,11,1.60
2015,12,12,01,12,1.60
2015,12,12,01,13,1.60
2015,12,12,01,14,1.60
2015,12,12,01,15,1.60
2015,12,12,01,16,3.20
2015,12,12,01,17,3.20
2015,12,12,01,18,1.60
2015,12,12,01,19,1.60
2015,12,12,01,20,1.60
2015,12,12,01,21,1.60
2015,12,12,01,25,1.60
2015,12,12,01,26,1.60
2015,12,12,01,27,1.60
2015,12,12,01,28,1.60
2015,12,12,01,29,3.20
2015,12,12,01,30,3.20
2015,12,12,01,31,3.20
2015,12,12,01,32,3.20
2015,12,12,01,33,3.20
2015,12,12,01,34,3.20
2015,12,12,01,35,3.20
2015,12,12,01,36,3.20
2015,12,12,01,37,4.80
2015,12,12,01,38,4.80
2015,12,12,01,39,4.80
2015,12,12,01,40,4.80
2015,12,12,01,41,3.20
2015,12,12,01,42,4.80
2015,12,12,01,43,4.80
2015,12,12,01,44,4.80
2015,12,12,01,45,4.80
2015,12,12,01,46,4.80
2015,12,12,01,47,4.80
2015,12,12,01,48,3.20
2015,12,12,01,49,4.80
2015,12,12,01,50,3.20
2015,12,12,01,51,4.80
2015,12,12,01,52,3.20
2015,12,12,01,53,3.20
2015,12,12,01,54,3.20
2015,12,12,01,55,3.20
2015,12,12,01,56,3.20
2015,12,12,01,57,3.20
2015,12,12,01,58,3.20
2015,12,12,01,59,4.80
2015,12,12,02,00,4.80
2015,12,12,02,01,3.20
2015,12,12,02,02,3.20
2015,12,12,02,03,3.20
2015,12,12,02,04,3.20
2015,12,12,02,05,3.20
2015,12,12,02,06,3.20
2015,12,12,02,07,3.20
2015,12,12,02,08,3.20
2015,12,12,02,09,3.20
2015,12,12,02,10,3.20
2015,12,12,02,11,3.20
2015,12,12,02,12,3.20
2015,12,12,02,13,3.20
2015,12,12,02,14,3.20
2015,12,12,02,15,3.20
2015,12,12,02,16,3.20
2015,12,12,02,17,1.60
2015,12,12,02,18,3.20
2015,12,12,02,19,3.20
2015,12,12,02,20,1.60
2015,12,12,02,21,1.60
2015,12,12,02,22,3.20
2015,12,12,02,23,3.20
2015,12,12,02,24,3.20
2015,12,12,02,25,1.60
2015,12,12,02,26,3.20
2015,12,12,02,27,3.20
2015,12,12,02,28,3.20
2015,12,12,02,29,3.20
2015,12,12,02,30,4.80
2015,12,12,02,31,4.80
2015,12,12,02,32,4.80
2015,12,12,02,33,4.80
2015,12,12,02,34,4.80
2015,12,12,02,35,3.20
2015,12,12,02,36,3.20
2015,12,12,02,37,3.20
2015,12,12,02,38,1.60
2015,12,12,02,45,1.60
2015,12,12,02,46,4.80
2015,12,12,02,47,4.80
2015,12,12,02,48,4.80
2015,12,12,02,49,4.80
2015,12,12,02,50,3.20
2015,12,12,02,51,3.20
2015,12,12,02,52,4.80
2015,12,12,02,53,4.80
2015,12,12,02,54,4.80
2015,12,12,02,55,4.80
2015,12,12,02,56,4.80
2015,12,12,02,57,4.80
2015,12,12,02,58,3.20
2015,12,12,02,59,3.20
2015,12,12,03,00,1.60
2015,12,12,03,01,1.60
2015,12,12,03,02,3.20
2015,12,12,03,03,3.20
2015,12,12,03,04,3.20
2015,12,12,03,05,1.60
2015,12,12,03,06,3.20
2015,12,12,03,07,3.20
2015,12,12,03,08,3.20
2015,12,12,03,09,3.20
2015,12,12,03,10,3.20
2015,12,12,03,11,3.20
2015,12,12,03,12,3.20
2015,12,12,03,13,1.60
2015,12,12,03,14,3.20
2015,12,12,03,15,3.20
2015,12,12,03,16,3.20
2015,12,12,03,17,3.20
2015,12,12,03,18,3.20
2015,12,12,03,19,3.20
2015,12,12,03,20,3.20
2015,12,12,03,21,3.20
2015,12,12,03,22,4.80
2015,12,12,03,23,4.80
2015,12,12,03,24,4.80
2015,12,12,03,25,4.80
2015,12,12,03,26,4.80
2015,12,12,03,27,4.80
2015,12,12,03,28,3.20
2015,12,12,03,29,3.20
2015,12,12,03,30,3.20
2015,12,12,03,31,3.20
2015,12,12,03,32,3.20
2015,12,12,03,33,3.20
2015,12,12,03,34,3.20
2015,12,12,03,35,3.20
2015,12,12,03,36,3.20
2015,12,12,03,37,1.60
2015,12,12,03,38,3.20
2015,12,12,03,39,3.20
2015,12,12,03,40,1.60
2015,12,12,03,41,1.60
2015,12,12,03,42,1.60
2015,12,12,03,43,1.60
2015,12,12,03,44,1.60
2015,12,12,03,45,1.60
2015,12,12,03,46,1.60
2015,12,12,03,47,1.60
2015,12,12,03,48,3.20
2015,12,12,03,49,3.20
2015,12,12,03,50,3.20
2015,12,12,03,51,3.20
2015,12,12,03,52,1.60
2015,12,12,03,53,1.60
2015,12,12,03,54,1.60
2015,12,12,03,55,3.20
2015,12,12,03,56,3.20
2015,12,12,03,57,3.20
2015,12,12,03,58,4.80
2015,12,12,03,59,3.20
2015,12,12,04,00,3.20
2015,12,12,04,01,3.20
2015,12,12,04,02,3.20
2015,12,12,04,03,3.20
2015,12,12,04,04,1.60
2015,12,12,04,05,1.60
2015,12,12,04,06,1.60
2015,12,12,04,07,3.20
2015,12,12,04,08,3.20
2015,12,12,04,09,3.20
2015,12,12,04,10,1.60
2015,12,12,04,11,1.60
2015,12,12,04,12,1.60
2015,12,12,04,13,3.20
2015,12,12,04,14,3.20
2015,12,12,04,15,3.20
2015,12,12,04,16,3.20
2015,12,12,04,17,3.20
2015,12,12,04,18,3.20
2015,12,12,04,19,3.20
2015,12,12,04,20,3.20
2015,12,12,04,21,3.20
2015,12,12,04,22,3.20
2015,12,12,04,23,4.80
2015,12,12,04,24,3.20
2015,12,12,04,25,3.20
2015,12,12,04,26,3.20
2015,12,12,04,27,3.20
2015,12,12,04,28,3.20
2015,12,12,04,29,3.20
2015,12,12,04,30,3.20
2015,12,12,04,31,3.20
2015,12,12,04,32,3.20
2015,12,12,04,33,3.20
2015,12,12,04,34,3.20
2015,12,12,04,35,1.60
2015,12,12,04,36,1.60
2015,12,12,04,37,1.60
2015,12,12,04,38,1.60
2015,12,12,04,39,1.60
2015,12,12,04,42,1.60
2015,12,12,04,43,1.60
2015,12,12,04,44,3.20
2015,12,12,04,45,4.80
2015,12,12,04,46,4.80
2015,12,12,04,47,3.20
2015,12,12,04,48,3.20
2015,12,12,04,49,4.80
2015,12,12,04,50,4.80
2015,12,12,04,51,4.80
2015,12,12,04,52,4.80
2015,12,12,04,53,4.80
2015,12,12,04,54,4.80
2015,12,12,04,55,6.40
2015,12,12,04,56,6.40
2015,12,12,04,57,6.40
2015,12,12,04,58,8.10
2015,12,12,04,59,8.10
2015,12,12,05,00,8.10
2015,12,12,05,01,9.60
2015,12,12,05,02,8.10
2015,12,12,05,03,8.10
2015,12,12,05,04,8.10
2015,12,12,05,05,8.10
2015,12,12,05,06,6.40
2015,12,12,05,07,6.40
2015,12,12,05,08,4.80
2015,12,12,05,09,4.80
2015,12,12,05,10,4.80
2015,12,12,05,11,4.80
2015,12,12,05,12,4.80
2015,12,12,05,13,4.80
2015,12,12,05,14,3.20
2015,12,12,05,15,3.20
2015,12,12,05,16,3.20
2015,12,12,05,17,1.60
2015,12,12,05,18,1.60
2015,12,12,05,19,3.20
2015,12,12,05,20,3.20
2015,12,12,05,21,1.60
2015,12,12,05,22,1.60
2015,12,12,05,25,1.60
2015,12,12,05,26,1.60
2015,12,12,05,27,1.60
2015,12,12,05,29,1.60
2015,12,12,05,30,3.20
2015,12,12,05,31,1.60
2015,12,12,05,33,1.60
2015,12,12,05,34,1.60
2015,12,12,05,35,1.60
2015,12,12,05,36,3.20
2015,12,12,05,37,1.60
2015,12,12,05,38,1.60
2015,12,12,05,39,1.60
2015,12,12,05,40,1.60
2015,12,12,05,42,1.60
2015,12,12,05,43,4.80
2015,12,12,05,44,4.80
2015,12,12,05,45,4.80
2015,12,12,05,46,4.80
2015,12,12,05,47,3.20
2015,12,12,05,48,3.20
2015,12,12,05,49,3.20
2015,12,12,05,50,4.80
2015,12,12,05,51,3.20
2015,12,12,05,52,3.20
2015,12,12,05,53,3.20
2015,12,12,05,54,3.20
2015,12,12,05,55,4.80
2015,12,12,05,56,3.20
2015,12,12,05,57,3.20
2015,12,12,05,58,3.20
2015,12,12,05,59,3.20
2015,12,12,06,00,3.20
2015,12,12,06,01,3.20
2015,12,12,06,02,3.20
2015,12,12,06,03,1.60
2015,12,12,06,04,1.60
2015,12,12,06,05,1.60
2015,12,12,06,06,1.60
2015,12,12,06,08,1.60
2015,12,12,06,09,1.60
2015,12,12,06,10,1.60
2015,12,12,06,11,1.60
2015,12,12,06,12,1.60
2015,12,12,06,13,1.60
2015,12,12,06,14,3.20
2015,12,12,06,15,1.60
2015,12,12,06,16,3.20
2015,12,12,06,17,3.20
2015,12,12,06,18,3.20
2015,12,12,06,19,4.80
2015,12,12,06,20,4.80
2015,12,12,06,21,3.20
2015,12,12,06,22,6.40
2015,12,12,06,23,3.20
2015,12,12,06,24,11.30
2015,12,12,06,25,4.80
2015,12,12,06,26,4.80
2015,12,12,06,27,3.20
2015,12,12,06,28,3.20
2015,12,12,06,29,1.60
2015,12,12,06,30,3.20
2015,12,12,06,31,4.80
2015,12,12,06,32,3.20
2015,12,12,06,33,4.80
2015,12,12,06,34,3.20
2015,12,12,06,35,1.60
2015,12,12,06,36,8.10
2015,12,12,06,37,8.10
2015,12,12,06,38,9.60
2015,12,12,06,39,6.40
2015,12,12,06,40,3.20
2015,12,12,06,41,8.10
2015,12,12,06,42,6.40
2015,12,12,06,43,3.20
2015,12,12,06,44,3.20
2015,12,12,06,45,11.30
2015,12,12,06,46,14.50
2015,12,12,06,47,9.60
2015,12,12,06,48,9.60
2015,12,12,06,49,8.10
2015,12,12,06,50,9.60
2015,12,12,06,51,9.60
2015,12,12,06,52,6.40
2015,12,12,06,53,6.40
2015,12,12,06,54,3.20
2015,12,12,06,55,8.10
2015,12,12,06,56,6.40
2015,12,12,06,57,4.80
2015,12,12,06,58,14.50
2015,12,12,06,59,11.30
2015,12,12,07,00,6.40
2015,12,12,07,01,9.60
2015,12,12,07,02,8.10
2015,12,12,07,03,8.10
2015,12,12,07,04,4.80
2015,12,12,07,05,4.80
2015,12,12,07,06,4.80
2015,12,12,07,07,4.80
2015,12,12,07,08,3.20
2015,12,12,07,09,1.60
2015,12,12,07,10,1.60
2015,12,12,07,11,3.20
2015,12,12,07,12,1.60
2015,12,12,07,13,3.20
2015,12,12,07,14,3.20
2015,12,12,07,15,1.60
2015,12,12,07,16,1.60
2015,12,12,07,17,1.60
2015,12,12,07,18,1.60
2015,12,12,07,19,3.20
2015,12,12,07,20,3.20
2015,12,12,07,21,9.60
2015,12,12,07,22,6.40
2015,12,12,07,23,8.10
2015,12,12,07,24,4.80
2015,12,12,07,25,4.80
2015,12,12,07,26,3.20
2015,12,12,07,27,8.10
2015,12,12,07,28,4.80
2015,12,12,07,29,3.20
2015,12,12,07,30,3.20
2015,12,12,07,31,8.10
2015,12,12,07,32,9.60
2015,12,12,07,33,4.80
2015,12,12,07,34,4.80
2015,12,12,07,35,4.80
2015,12,12,07,36,4.80
2015,12,12,07,37,4.80
2015,12,12,07,38,4.80
2015,12,12,07,39,4.80
2015,12,12,07,40,4.80
2015,12,12,07,41,4.80
2015,12,12,07,42,3.20
2015,12,12,07,43,6.40
2015,12,12,07,44,6.40
2015,12,12,07,45,4.80
2015,12,12,07,46,6.40
2015,12,12,07,47,4.80
2015,12,12,07,48,4.80
2015,12,12,07,49,4.80
2015,12,12,07,50,6.40
2015,12,12,07,51,6.40
2015,12,12,07,52,6.40
2015,12,12,07,53,3.20
2015,12,12,07,54,3.20
2015,12,12,07,55,3.20
2015,12,12,07,56,6.40
2015,12,12,07,57,4.80
2015,12,12,07,58,3.20
2015,12,12,07,59,4.80
2015,12,12,08,00,1.60
2015,12,12,08,01,3.20
2015,12,12,08,02,3.20
2015,12,12,08,03,1.60
2015,12,12,08,04,4.80
2015,12,12,08,05,4.80
2015,12,12,08,06,4.80
2015,12,12,08,07,3.20
2015,12,12,08,08,3.20
2015,12,12,08,09,3.20
2015,12,12,08,10,3.20
2015,12,12,08,11,4.80
2015,12,12,08,12,4.80
2015,12,12,08,13,4.80
2015,12,12,08,14,4.80
2015,12,12,08,15,4.80
2015,12,12,08,16,4.80
2015,12,12,08,17,6.40
2015,12,12,08,18,6.40
2015,12,12,08,19,6.40
2015,12,12,08,20,6.40
2015,12,12,08,21,6.40
2015,12,12,08,22,6.40
2015,12,12,08,23,4.80
2015,12,12,08,24,4.80
2015,12,12,08,25,4.80
2015,12,12,08,26,3.20
2015,12,12,08,27,4.80
2015,12,12,08,28,3.20
2015,12,12,08,29,4.80
2015,12,12,08,30,6.40
2015,12,12,08,31,4.80
2015,12,12,08,32,4.80
2015,12,12,08,33,4.80
2015,12,12,08,34,3.20
2015,12,12,08,35,3.20
2015,12,12,08,36,4.80
2015,12,12,08,37,4.80
2015,12,12,08,38,6.40
2015,12,12,08,39,6.40
2015,12,12,08,40,4.80
2015,12,12,08,41,4.80
2015,12,12,08,42,6.40
2015,12,12,08,43,3.20
2015,12,12,08,44,4.80
2015,12,12,08,45,4.80
2015,12,12,08,46,4.80
2015,12,12,08,47,4.80
2015,12,12,08,48,4.80
2015,12,12,08,49,4.80
2015,12,12,08,50,3.20
2015,12,12,08,51,3.20
2015,12,12,08,52,3.20
2015,12,12,08,53,3.20
2015,12,12,08,54,4.80
2015,12,12,08,55,3.20
2015,12,12,08,56,3.20
2015,12,12,08,57,3.20
2015,12,12,08,58,3.20
2015,12,12,08,59,3.20
2015,12,12,09,00,4.80
2015,12,12,09,01,3.20
2015,12,12,09,02,4.80
2015,12,12,09,03,4.80
2015,12,12,09,04,4.80
2015,12,12,09,05,4.80
2015,12,12,09,06,4.80
2015,12,12,09,07,4.80
2015,12,12,09,08,4.80
2015,12,12,09,09,4.80
2015,12,12,09,10,4.80
2015,12,12,09,11,4.80
2015,12,12,09,12,4.80
2015,12,12,09,13,4.80
2015,12,12,09,14,4.80
2015,12,12,09,15,4.80
2015,12,12,09,16,4.80
2015,12,12,09,17,4.80
2015,12,12,09,18,4.80
2015,12,12,09,19,4.80
2015,12,12,09,20,6.40
2015,12,12,09,21,4.80
2015,12,12,09,22,6.40
2015,12,12,09,23,6.40
2015,12,12,09,24,6.40
2015,12,12,09,25,4.80
2015,12,12,09,26,3.20
2015,12,12,09,27,3.20
2015,12,12,09,28,4.80
2015,12,12,09,29,9.60
2015,12,12,09,30,3.20
2015,12,12,09,31,3.20
2015,12,12,09,32,3.20
2015,12,12,09,33,3.20
2015,12,12,09,34,4.80
2015,12,12,09,35,3.20
2015,12,12,09,36,4.80
2015,12,12,09,37,3.20
2015,12,12,09,38,3.20
2015,12,12,09,39,3.20
2015,12,12,09,40,3.20
2015,12,12,09,41,4.80
2015,12,12,09,42,4.80
2015,12,12,09,43,4.80
2015,12,12,09,44,8.10
2015,12,12,09,45,6.40
2015,12,12,09,46,6.40
2015,12,12,09,47,6.40
2015,12,12,09,48,6.40
2015,12,12,09,49,11.30
2015,12,12,09,50,9.60
2015,12,12,09,51,8.10
2015,12,12,09,52,6.40
2015,12,12,09,53,8.10
2015,12,12,09,54,4.80
2015,12,12,09,55,8.10
2015,12,12,09,56,12.90
2015,12,12,09,57,12.90
2015,12,12,09,58,14.50
2015,12,12,09,59,9.60
2015,12,12,10,00,12.90
2015,12,12,10,01,17.70
2015,12,12,10,02,12.90
2015,12,12,10,03,14.50
2015,12,12,10,04,12.90
2015,12,12,10,05,14.50
2015,12,12,10,06,22.50
2015,12,12,10,07,16.10
2015,12,12,10,08,11.30
2015,12,12,10,09,11.30
2015,12,12,10,10,6.40
2015,12,12,10,11,14.50
2015,12,12,10,12,16.10
2015,12,12,10,13,22.50
2015,12,12,10,14,12.90
2015,12,12,10,15,24.20
2015,12,12,10,16,22.50
2015,12,12,10,17,25.70
2015,12,12,10,18,29.00
2015,12,12,10,19,20.90
2015,12,12,10,20,11.30
2015,12,12,10,21,27.40
2015,12,12,10,22,29.00
2015,12,12,10,23,27.40
2015,12,12,10,24,32.20
2015,12,12,10,25,20.90
2015,12,12,10,26,29.00
2015,12,12,10,27,19.30
2015,12,12,10,28,25.70
2015,12,12,10,29,24.20
2015,12,12,10,30,20.90
2015,12,12,10,31,49.90
2015,12,12,10,32,24.20
2015,12,12,10,33,27.40
2015,12,12,10,34,35.40
2015,12,12,10,35,33.80
2015,12,12,10,36,37.00
2015,12,12,10,37,24.20
2015,12,12,10,38,20.90
2015,12,12,10,39,25.70
2015,12,12,10,40,20.90
2015,12,12,10,41,22.50
2015,12,12,10,42,29.00
2015,12,12,10,43,35.40
2015,12,12,10,44,41.80
2015,12,12,10,45,38.60
2015,12,12,10,46,29.00
2015,12,12,10,47,25.70
2015,12,12,10,48,33.80
2015,12,12,10,49,30.60
2015,12,12,10,50,35.40
2015,12,12,10,51,33.80
2015,12,12,10,52,30.60
2015,12,12,10,53,17.70
2015,12,12,10,54,35.40
2015,12,12,10,55,32.20
2015,12,12,10,56,38.60
2015,12,12,10,57,45.10
2015,12,12,10,58,38.60
2015,12,12,10,59,29.00
2015,12,12,11,00,35.40
2015,12,12,11,01,37.00
2015,12,12,11,02,43.50
2015,12,12,11,03,41.80
2015,12,12,11,04,33.80
2015,12,12,11,05,32.20
2015,12,12,11,06,33.80
2015,12,12,11,07,35.40
2015,12,12,11,08,17.70
2015,12,12,11,09,24.20
2015,12,12,11,10,32.20
2015,12,12,11,11,53.10
2015,12,12,11,12,37.00
2015,12,12,11,13,29.00
2015,12,12,11,14,29.00
2015,12,12,11,15,19.30
2015,12,12,11,16,29.00
2015,12,12,11,17,27.40
2015,12,12,11,18,19.30
2015,12,12,11,19,20.90
2015,12,12,11,20,40.20
2015,12,12,11,21,40.20
2015,12,12,11,22,37.00
2015,12,12,11,23,38.60
2015,12,12,11,24,33.80
2015,12,12,11,25,37.00
2015,12,12,11,26,27.40
2015,12,12,11,27,38.60
2015,12,12,11,28,37.00
2015,12,12,11,29,43.50
2015,12,12,11,30,37.00
2015,12,12,11,31,45.10
2015,12,12,11,32,41.80
2015,12,12,11,33,37.00
2015,12,12,11,34,40.20
2015,12,12,11,35,33.80
2015,12,12,11,36,40.20
2015,12,12,11,37,38.60
2015,12,12,11,38,37.00
2015,12,12,11,39,41.80
2015,12,12,11,40,40.20
2015,12,12,11,41,32.20
2015,12,12,11,42,41.80
2015,12,12,11,43,38.60
2015,12,12,11,44,38.60
2015,12,12,11,45,51.50
2015,12,12,11,46,49.90
2015,12,12,11,47,57.90
2015,12,12,11,48,37.00
2015,12,12,11,49,41.80
2015,12,12,11,50,40.20
2015,12,12,11,51,45.10
2015,12,12,11,52,37.00
2015,12,12,11,53,53.10
2015,12,12,11,54,46.70
2015,12,12,11,55,62.70
2015,12,12,11,56,37.00
2015,12,12,11,57,53.10
2015,12,12,11,58,41.80
2015,12,12,11,59,48.30
2015,12,12,12,00,24.20
2015,12,12,12,01,46.70
2015,12,12,12,02,33.80
2015,12,12,12,03,49.90
2015,12,12,12,04,43.50
2015,12,12,12,05,43.50
2015,12,12,12,06,30.60
2015,12,12,12,07,33.80
2015,12,12,12,08,49.90
2015,12,12,12,09,48.30
2015,12,12,12,10,43.50
2015,12,12,12,11,38.60
2015,12,12,12,12,35.40
2015,12,12,12,13,40.20
2015,12,12,12,14,30.60
2015,12,12,12,15,48.30
2015,12,12,12,16,49.90
2015,12,12,12,17,27.40
2015,12,12,12,18,49.90
2015,12,12,12,19,49.90
2015,12,12,12,20,43.50
2015,12,12,12,21,48.30
2015,12,12,12,22,46.70
2015,12,12,12,23,32.20
2015,12,12,12,24,43.50
2015,12,12,12,25,33.80
2015,12,12,12,26,48.30
2015,12,12,12,27,40.20
2015,12,12,12,28,37.00
2015,12,12,12,29,48.30
2015,12,12,12,30,48.30
2015,12,12,12,31,43.50
2015,12,12,12,32,37.00
2015,12,12,12,33,45.10
2015,12,12,12,34,37.00
2015,12,12,12,35,35.40
2015,12,12,12,36,46.70
2015,12,12,12,37,40.20
2015,12,12,12,38,32.20
2015,12,12,12,39,46.70
2015,12,12,12,40,33.80
2015,12,12,12,41,29.00
2015,12,12,12,42,57.90
2015,12,12,12,43,37.00
2015,12,12,12,44,40.20
2015,12,12,12,45,61.20
2015,12,12,12,46,38.60
2015,12,12,12,47,22.50
2015,12,12,12,48,37.00
2015,12,12,12,49,41.80
2015,12,12,12,50,38.60
2015,12,12,12,51,40.20
2015,12,12,12,52,49.90
2015,12,12,12,53,53.10
2015,12,12,12,54,32.20
2015,12,12,12,55,41.80
2015,12,12,12,56,37.00
2015,12,12,12,57,35.40
2015,12,12,12,58,29.00
2015,12,12,12,59,35.40
2015,12,12,13,00,46.70
2015,12,12,13,01,77.30
2015,12,12,13,02,35.40
2015,12,12,13,03,53.10
2015,12,12,13,04,51.50
2015,12,12,13,05,37.00
2015,12,12,13,06,37.00
2015,12,12,13,07,43.50
2015,12,12,13,08,35.40
2015,12,12,13,09,30.60
2015,12,12,13,10,35.40
2015,12,12,13,11,51.50
2015,12,12,13,12,54.70
2015,12,12,13,13,51.50
2015,12,12,13,14,40.20
2015,12,12,13,15,48.30
2015,12,12,13,16,43.50
2015,12,12,13,17,43.50
2015,12,12,13,18,33.80
2015,12,12,13,19,48.30
2015,12,12,13,20,54.70
2015,12,12,13,21,51.50
2015,12,12,13,22,53.10
2015,12,12,13,23,35.40
2015,12,12,13,24,38.60
2015,12,12,13,25,51.50
2015,12,12,13,26,45.10
2015,12,12,13,27,38.60
2015,12,12,13,28,35.40
2015,12,12,13,29,54.70
2015,12,12,13,30,45.10
2015,12,12,13,31,41.80
2015,12,12,13,32,66.00
2015,12,12,13,33,61.20
2015,12,12,13,34,41.80
2015,12,12,13,35,51.50
2015,12,12,13,36,45.10
2015,12,12,13,37,46.70
2015,12,12,13,38,41.80
2015,12,12,13,39,37.00
2015,12,12,13,40,38.60
2015,12,12,13,41,51.50
2015,12,12,13,42,35.40
2015,12,12,13,43,48.30
2015,12,12,13,44,56.30
2015,12,12,13,45,45.10
2015,12,12,13,46,54.70
2015,12,12,13,47,43.50
2015,12,12,13,48,43.50
2015,12,12,13,49,35.40
2015,12,12,13,50,32.20
2015,12,12,13,51,48.30
2015,12,12,13,52,40.20
2015,12,12,13,53,46.70
2015,12,12,13,54,56.30
2015,12,12,13,55,61.20
2015,12,12,13,56,62.70
2015,12,12,13,57,49.90
2015,12,12,13,58,45.10
2015,12,12,13,59,33.80
2015,12,12,14,00,49.90
2015,12,12,14,01,35.40
2015,12,12,14,02,45.10
2015,12,12,14,03,32.20
2015,12,12,14,04,46.70
2015,12,12,14,05,54.70
2015,12,12,14,06,43.50
2015,12,12,14,07,57.90
2015,12,12,14,08,46.70
2015,12,12,14,09,53.10
2015,12,12,14,10,46.70
2015,12,12,14,11,41.80
2015,12,12,14,12,46.70
2015,12,12,14,13,53.10
2015,12,12,14,14,48.30
2015,12,12,14,15,46.70
2015,12,12,14,16,54.70
2015,12,12,14,17,53.10
2015,12,12,14,18,40.20
2015,12,12,14,19,56.30
2015,12,12,14,20,33.80
2015,12,12,14,21,54.70
2015,12,12,14,22,53.10
2015,12,12,14,23,46.70
2015,12,12,14,24,45.10
2015,12,12,14,25,46.70
2015,12,12,14,26,46.70
2015,12,12,14,27,53.10
2015,12,12,14,28,38.60
2015,12,12,14,29,51.50
2015,12,12,14,30,33.80
2015,12,12,14,31,43.50
2015,12,12,14,32,51.50
2015,12,12,14,33,56.30
2015,12,12,14,34,43.50
2015,12,12,14,35,37.00
2015,12,12,14,36,43.50
2015,12,12,14,37,64.40
2015,12,12,14,38,54.70
2015,12,12,14,39,48.30
2015,12,12,14,40,40.20
2015,12,12,14,41,32.20
2015,12,12,14,42,41.80
2015,12,12,14,43,43.50
2015,12,12,14,44,48.30
2015,12,12,14,45,59.50
2015,12,12,14,46,40.20
2015,12,12,14,47,48.30
2015,12,12,14,48,56.30
2015,12,12,14,49,41.80
2015,12,12,14,50,48.30
2015,12,12,14,51,37.00
2015,12,12,14,52,54.70
2015,12,12,14,53,51.50
2015,12,12,14,54,54.70
2015,12,12,14,55,38.60
2015,12,12,14,56,29.00
2015,12,12,14,57,35.40
2015,12,12,14,58,43.50
2015,12,12,14,59,46.70
2015,12,12,15,00,37.00
2015,12,12,15,01,56.30
2015,12,12,15,02,32.20
2015,12,12,15,03,27.40
2015,12,12,15,04,33.80
2015,12,12,15,05,27.40
2015,12,12,15,06,43.50
2015,12,12,15,07,35.40
2015,12,12,15,08,45.10
2015,12,12,15,09,35.40
2015,12,12,15,10,41.80
2015,12,12,15,11,35.40
2015,12,12,15,12,35.40
2015,12,12,15,13,38.60
2015,12,12,15,14,41.80
2015,12,12,15,15,40.20
2015,12,12,15,16,46.70
2015,12,12,15,17,32.20
2015,12,12,15,18,40.20
2015,12,12,15,19,33.80
2015,12,12,15,20,40.20
2015,12,12,15,21,41.80
2015,12,12,15,22,37.00
2015,12,12,15,23,41.80
2015,12,12,15,24,35.40
2015,12,12,15,25,30.60
2015,12,12,15,26,29.00
2015,12,12,15,27,29.00
2015,12,12,15,28,41.80
2015,12,12,15,29,43.50
2015,12,12,15,30,46.70
2015,12,12,15,31,27.40
2015,12,12,15,32,35.40
2015,12,12,15,33,22.50
2015,12,12,15,34,22.50
2015,12,12,15,35,30.60
2015,12,12,15,36,38.60
2015,12,12,15,37,43.50
2015,12,12,15,38,38.60
2015,12,12,15,39,46.70
2015,12,12,15,40,29.00
2015,12,12,15,41,29.00
2015,12,12,15,42,33.80
2015,12,12,15,43,32.20
2015,12,12,15,44,24.20
2015,12,12,15,45,33.80
2015,12,12,15,46,29.00
2015,12,12,15,47,41.80
2015,12,12,15,48,25.70
2015,12,12,15,49,32.20
2015,12,12,15,50,24.20
2015,12,12,15,51,27.40
2015,12,12,15,52,46.70
2015,12,12,15,53,20.90
2015,12,12,15,54,27.40
2015,12,12,15,55,27.40
2015,12,12,15,56,32.20
2015,12,12,15,57,30.60
2015,12,12,15,58,22.50
2015,12,12,15,59,27.40
2015,12,12,16,00,19.30
2015,12,12,16,01,25.70
2015,12,12,16,02,24.20
2015,12,12,16,03,20.90
2015,12,12,16,04,20.90
2015,12,12,16,05,24.20
2015,12,12,16,06,29.00
2015,12,12,16,07,19.30
2015,12,12,16,08,24.20
2015,12,12,16,09,20.90
2015,12,12,16,10,24.20
2015,12,12,16,11,17.70
2015,12,12,16,12,19.30
2015,12,12,16,13,20.90
2015,12,12,16,14,19.30
2015,12,12,16,15,27.40
2015,12,12,16,16,19.30
2015,12,12,16,17,14.50
2015,12,12,16,18,17.70
2015,12,12,16,19,25.70
2015,12,12,16,20,29.00
2015,12,12,16,21,24.20
2015,12,12,16,22,22.50
2015,12,12,16,23,25.70
2015,12,12,16,24,22.50
2015,12,12,16,25,27.40
2015,12,12,16,26,24.20
2015,12,12,16,27,20.90
2015,12,12,16,28,17.70
2015,12,12,16,29,24.20
2015,12,12,16,30,22.50
2015,12,12,16,31,14.50
2015,12,12,16,32,16.10
2015,12,12,16,33,19.30
2015,12,12,16,34,12.90
2015,12,12,16,35,11.30
2015,12,12,16,36,16.10
2015,12,12,16,37,37.00
2015,12,12,16,38,33.80
2015,12,12,16,39,30.60
2015,12,12,16,40,29.00
2015,12,12,16,41,35.40
2015,12,12,16,42,22.50
2015,12,12,16,43,20.90
2015,12,12,16,44,25.70
2015,12,12,16,45,16.10
2015,12,12,16,46,20.90
2015,12,12,16,47,17.70
2015,12,12,16,48,16.10
2015,12,12,16,49,16.10
2015,12,12,16,50,24.20
2015,12,12,16,51,22.50
2015,12,12,16,52,25.70
2015,12,12,16,53,22.50
2015,12,12,16,54,22.50
2015,12,12,16,55,20.90
2015,12,12,16,56,17.70
2015,12,12,16,57,24.20
2015,12,12,16,58,22.50
2015,12,12,16,59,17.70
2015,12,12,17,00,11.30
2015,12,12,17,01,14.50
2015,12,12,17,02,16.10
2015,12,12,17,03,24.20
2015,12,12,17,04,17.70
2015,12,12,17,05,19.30
2015,12,12,17,06,16.10
2015,12,12,17,07,17.70
2015,12,12,17,08,19.30
2015,12,12,17,09,16.10
2015,12,12,17,10,16.10
2015,12,12,17,11,14.50
2015,12,12,17,12,22.50
2015,12,12,17,13,19.30
2015,12,12,17,14,14.50
2015,12,12,17,15,14.50
2015,12,12,17,16,11.30
2015,12,12,17,17,14.50
2015,12,12,17,18,16.10
2015,12,12,17,19,16.10
2015,12,12,17,20,14.50
2015,12,12,17,21,11.30
2015,12,12,17,22,14.50
2015,12,12,17,23,16.10
2015,12,12,17,24,12.90
2015,12,12,17,25,14.50
2015,12,12,17,26,17.70
2015,12,12,17,27,11.30
2015,12,12,17,28,16.10
2015,12,12,17,29,16.10
2015,12,12,17,30,17.70
2015,12,12,17,31,17.70
2015,12,12,17,32,19.30
2015,12,12,17,33,19.30
2015,12,12,17,34,12.90
2015,12,12,17,35,12.90
2015,12,12,17,36,20.90
2015,12,12,17,37,17.70
2015,12,12,17,38,16.10
2015,12,12,17,39,12.90
2015,12,12,17,40,20.90
2015,12,12,17,41,19.30
2015,12,12,17,42,22.50
2015,12,12,17,43,16.10
2015,12,12,17,44,17.70
2015,12,12,17,45,17.70
2015,12,12,17,46,16.10
2015,12,12,17,47,12.90
2015,12,12,17,48,17.70
2015,12,12,17,49,11.30
2015,12,12,17,50,11.30
2015,12,12,17,51,12.90
2015,12,12,17,52,9.60
2015,12,12,17,53,19.30
2015,12,12,17,54,17.70
2015,12,12,17,55,19.30
2015,12,12,17,56,17.70
2015,12,12,17,57,17.70
2015,12,12,17,58,14.50
2015,12,12,17,59,9.60
2015,12,12,18,00,12.90
2015,12,12,18,01,12.90
2015,12,12,18,02,12.90
2015,12,12,18,03,12.90
2015,12,12,18,04,17.70
2015,12,12,18,05,20.90
2015,12,12,18,06,16.10
2015,12,12,18,07,16.10
2015,12,12,18,08,14.50
2015,12,12,18,09,11.30
2015,12,12,18,10,11.30
2015,12,12,18,11,17.70
2015,12,12,18,12,20.90
2015,12,12,18,13,25.70
2015,12,12,18,14,22.50
2015,12,12,18,15,19.30
2015,12,12,18,16,32.20
2015,12,12,18,17,22.50
2015,12,12,18,18,24.20
2015,12,12,18,19,19.30
2015,12,12,18,20,14.50
2015,12,12,18,21,22.50
2015,12,12,18,22,16.10
2015,12,12,18,23,16.10
2015,12,12,18,24,16.10
2015,12,12,18,25,19.30
2015,12,12,18,26,16.10
2015,12,12,18,27,22.50
2015,12,12,18,28,17.70
2015,12,12,18,29,17.70
2015,12,12,18,30,24.20